Time,TemperatureF,DewpointF,PressureIn,WindDirection,WindDirectionDegrees,WindSpeedMPH,WindSpeedGustMPH,Humidity,HourlyPrecipIn,Conditions,Clouds,dailyrainin,SoftwareType,DateUTC
2013-04-04 00:12:00,50.2,44.0,29.96,West,281,2.0,4.0,80,0.00,,,0.00,weatherlink.com 1.10,2013-04-04 07:12:00,
2013-04-04 00:27:00,50.1,44.0,29.96,WNW,290,3.0,4.0,80,0.00,,,0.00,weatherlink.com 1.10,2013-04-04 07:27:00,
2013-04-04 00:42:00,50.2,44.0,29.96,WNW,285,1.0,5.0,79,0.00,,,0.00,weatherlink.com 1.10,2013-04-04 07:42:00,
2013-04-04 00:57:00,50.3,44.0,29.95,WNW,289,3.0,6.0,80,0.00,,,0.00,weatherlink.com 1.10,2013-04-04 07:57:00,
2013-04-04 01:12:00,50.2,45.0,29.95,WNW,294,4.0,5.0,82,0.00,,,0.00,weatherlink.com 1.10,2013-04-04 08:12:00,
2013-04-04 01:27:00,50.1,45.0,29.95,WNW,287,3.0,6.0,83,0.00,,,0.00,weatherlink.com 1.10,2013-04-04 08:27:00,
2013-04-04 01:43:00,50.0,46.0,29.94,West,281,1.0,4.0,85,0.00,,,0.00,weatherlink.com 1.10,2013-04-04 08:43:00,
2013-04-04 01:58:00,49.4,45.0,29.93,West,281,2.0,3.0,85,0.00,,,0.00,weatherlink.com 1.10,2013-04-04 08:58:00,
2013-04-04 02:13:00,48.9,45.0,29.92,West,281,2.0,3.0,86,0.00,,,0.00,weatherlink.com 1.10,2013-04-04 09:13:00,
2013-04-04 02:28:00,48.7,45.0,29.92,West,281,2.0,3.0,87,0.00,,,0.00,weatherlink.com 1.10,2013-04-04 09:28:00,
2013-04-04 02:43:00,48.6,45.0,29.91,West,281,1.0,2.0,88,0.00,,,0.00,weatherlink.com 1.10,2013-04-04 09:43:00,
2013-04-04 02:58:00,48.4,45.0,29.91,West,281,2.0,4.0,89,0.00,,,0.00,weatherlink.com 1.10,2013-04-04 09:58:00,
2013-04-04 03:13:00,48.7,45.0,29.90,WNW,282,3.0,5.0,87,0.00,,,0.00,weatherlink.com 1.10,2013-04-04 10:13:00,
2013-04-04 03:28:00,49.1,45.0,29.90,WNW,286,3.0,4.0,87,0.00,,,0.00,weatherlink.com 1.10,2013-04-04 10:28:00,
2013-04-04 03:43:00,49.2,46.0,29.89,WNW,289,3.0,4.0,87,0.00,,,0.00,weatherlink.com 1.10,2013-04-04 10:43:00,
2013-04-04 03:58:00,49.2,46.0,29.88,WNW,290,3.0,4.0,87,0.00,,,0.00,weatherlink.com 1.10,2013-04-04 10:58:00,
2013-04-04 04:13:00,49.2,46.0,29.88,WNW,284,4.0,4.0,87,0.00,,,0.00,weatherlink.com 1.10,2013-04-04 11:13:00,
2013-04-04 04:28:00,49.1,46.0,29.87,WNW,295,2.0,4.0,88,0.00,,,0.00,weatherlink.com 1.10,2013-04-04 11:28:00,
2013-04-04 04:43:00,49.1,46.0,29.86,WNW,294,0.0,4.0,89,0.00,,,0.00,weatherlink.com 1.10,2013-04-04 11:43:00,
2013-04-04 04:58:00,49.0,46.0,29.85,WNW,291,4.0,4.0,89,0.00,,,0.00,weatherlink.com 1.10,2013-04-04 11:58:00,
2013-04-04 05:13:00,49.0,46.0,29.85,WNW,287,1.0,4.0,89,0.00,,,0.00,weatherlink.com 1.10,2013-04-04 12:13:00,
2013-04-04 05:28:00,48.8,46.0,29.84,WNW,287,2.0,4.0,90,0.00,,,0.00,weatherlink.com 1.10,2013-04-04 12:28:00,
2013-04-04 05:43:00,48.9,46.0,29.84,WNW,287,0.0,4.0,89,0.00,,,0.00,weatherlink.com 1.10,2013-04-04 12:43:00,
2013-04-04 05:58:00,49.0,46.0,29.84,WNW,287,1.0,3.0,89,0.00,,,0.00,weatherlink.com 1.10,2013-04-04 12:58:00,
2013-04-04 06:13:00,49.0,46.0,29.83,West,277,3.0,3.0,90,0.00,,,0.00,weatherlink.com 1.10,2013-04-04 13:13:00,
2013-04-04 06:28:00,48.9,46.0,29.82,West,281,1.0,3.0,90,0.00,,,0.00,weatherlink.com 1.10,2013-04-04 13:28:00,
2013-04-04 06:43:00,48.8,46.0,29.82,WNW,283,1.0,3.0,90,0.00,,,0.00,weatherlink.com 1.10,2013-04-04 13:43:00,
2013-04-04 06:58:00,48.8,46.0,29.81,WNW,283,1.0,2.0,90,0.00,,,0.00,weatherlink.com 1.10,2013-04-04 13:58:00,
2013-04-04 07:13:00,48.7,46.0,29.81,WNW,283,1.0,3.0,90,0.00,,,0.00,weatherlink.com 1.10,2013-04-04 14:13:00,
2013-04-04 07:28:00,48.6,46.0,29.80,WNW,283,3.0,4.0,90,0.00,,,0.00,weatherlink.com 1.10,2013-04-04 14:28:00,
2013-04-04 07:43:00,48.8,46.0,29.80,WNW,283,0.0,0.0,90,0.00,,,0.00,weatherlink.com 1.10,2013-04-04 14:43:00,
2013-04-04 07:58:00,49.1,46.0,29.78,WNW,296,3.0,6.0,90,0.00,,,0.00,weatherlink.com 1.10,2013-04-04 14:58:00,
2013-04-04 08:29:00,49.2,47.0,29.78,East,94,1.0,7.0,90,0.00,,,0.00,weatherlink.com 1.10,2013-04-04 15:29:00,
2013-04-04 08:59:00,49.8,47.0,29.78,East,94,0.0,2.0,89,0.00,,,0.00,weatherlink.com 1.10,2013-04-04 15:59:00,
2013-04-04 09:44:00,50.0,47.0,29.76,WNW,292,3.0,7.0,88,0.00,,,0.00,weatherlink.com 1.10,2013-04-04 16:44:00,
2013-04-04 09:59:00,50.1,47.0,29.76,WNW,292,2.0,6.0,90,0.00,,,0.00,weatherlink.com 1.10,2013-04-04 16:59:00,
2013-04-04 10:44:00,49.5,47.0,29.74,NW,305,3.0,5.0,92,0.00,,,0.00,weatherlink.com 1.10,2013-04-04 17:44:00,
2013-04-04 10:59:00,49.3,47.0,29.74,WNW,302,2.0,8.0,93,0.00,,,0.00,weatherlink.com 1.10,2013-04-04 17:59:00,
2013-04-04 11:14:00,49.0,47.0,29.73,WNW,289,3.0,7.0,94,0.00,,,0.00,weatherlink.com 1.10,2013-04-04 18:14:00,
2013-04-04 11:29:00,48.9,47.0,29.73,WNW,282,2.0,5.0,94,0.00,,,0.00,weatherlink.com 1.10,2013-04-04 18:29:00,
2013-04-04 11:44:00,48.8,48.0,29.73,WNW,289,2.0,4.0,95,0.00,,,0.00,weatherlink.com 1.10,2013-04-04 18:44:00,
2013-04-04 12:00:00,48.9,48.0,29.73,WNW,289,0.0,2.0,96,0.00,,,0.00,weatherlink.com 1.10,2013-04-04 19:00:00,
2013-04-04 12:14:00,49.3,48.0,29.72,WNW,289,0.0,1.0,96,0.00,,,0.00,weatherlink.com 1.10,2013-04-04 19:14:00,
2013-04-04 12:29:00,49.8,49.0,29.71,WNW,289,0.0,1.0,96,0.00,,,0.00,weatherlink.com 1.10,2013-04-04 19:29:00,
2013-04-04 12:44:00,49.9,49.0,29.70,WNW,289,1.0,4.0,96,0.00,,,0.00,weatherlink.com 1.10,2013-04-04 19:44:00,
2013-04-04 13:14:00,49.3,48.0,29.69,WNW,287,3.0,4.0,96,0.00,,,0.00,weatherlink.com 1.10,2013-04-04 20:14:00,
2013-04-04 13:29:00,48.9,48.0,29.69,NW,310,3.0,5.0,96,0.00,,,0.00,weatherlink.com 1.10,2013-04-04 20:29:00,
2013-04-04 13:44:00,48.6,48.0,29.68,WNW,287,2.0,7.0,96,0.00,,,0.00,weatherlink.com 1.10,2013-04-04 20:44:00,
2013-04-04 13:59:00,48.3,47.0,29.68,WNW,283,4.0,6.0,96,0.00,,,0.00,weatherlink.com 1.10,2013-04-04 20:59:00,
2013-04-04 14:14:00,48.2,47.0,29.67,WNW,286,3.0,7.0,97,0.00,,,0.00,weatherlink.com 1.10,2013-04-04 21:14:00,
2013-04-04 14:29:00,48.1,47.0,29.67,West,275,2.0,6.0,97,0.00,,,0.00,weatherlink.com 1.10,2013-04-04 21:29:00,
2013-04-04 14:44:00,48.1,47.0,29.66,WNW,289,1.0,4.0,97,0.00,,,0.00,weatherlink.com 1.10,2013-04-04 21:44:00,
2013-04-04 15:00:00,48.2,47.0,29.66,West,271,2.0,4.0,97,0.00,,,0.00,weatherlink.com 1.10,2013-04-04 22:00:00,
2013-04-04 15:15:00,48.2,47.0,29.65,WNW,289,1.0,6.0,97,0.00,,,0.00,weatherlink.com 1.10,2013-04-04 22:15:00,
2013-04-04 15:30:00,48.1,47.0,29.65,WNW,287,0.0,4.0,97,0.00,,,0.00,weatherlink.com 1.10,2013-04-04 22:30:00,
2013-04-04 15:45:00,48.3,48.0,29.64,WNW,291,0.0,4.0,98,0.00,,,0.00,weatherlink.com 1.10,2013-04-04 22:45:00,
2013-04-04 16:15:00,48.6,48.0,29.64,West,281,0.0,5.0,98,0.00,,,0.00,weatherlink.com 1.10,2013-04-04 23:15:00,
2013-04-04 16:30:00,48.4,48.0,29.63,West,269,0.0,3.0,98,0.00,,,0.00,weatherlink.com 1.10,2013-04-04 23:30:00,
2013-04-04 16:45:00,48.4,48.0,29.62,West,269,0.0,3.0,98,0.00,,,0.00,weatherlink.com 1.10,2013-04-04 23:45:00,
2013-04-04 17:00:00,48.6,48.0,29.62,West,269,0.0,1.0,98,0.00,,,0.00,weatherlink.com 1.10,2013-04-05 00:00:00,
2013-04-04 17:15:00,48.7,48.0,29.61,West,269,0.0,1.0,98,0.00,,,0.00,weatherlink.com 1.10,2013-04-05 00:15:00,
2013-04-04 17:30:00,48.7,48.0,29.60,West,269,0.0,2.0,98,0.00,,,0.00,weatherlink.com 1.10,2013-04-05 00:30:00,
2013-04-04 17:45:00,48.7,48.0,29.59,West,269,0.0,1.0,98,0.00,,,0.00,weatherlink.com 1.10,2013-04-05 00:45:00,
2013-04-04 18:00:00,48.7,48.0,29.59,West,269,0.0,1.0,98,0.00,,,0.00,weatherlink.com 1.10,2013-04-05 01:00:00,
2013-04-04 18:15:00,48.8,48.0,29.58,West,269,0.0,1.0,98,0.00,,,0.00,weatherlink.com 1.10,2013-04-05 01:15:00,
2013-04-04 18:30:00,48.8,48.0,29.58,West,269,0.0,1.0,98,0.00,,,0.00,weatherlink.com 1.10,2013-04-05 01:30:00,
2013-04-04 18:45:00,48.9,48.0,29.57,West,269,1.0,2.0,98,0.00,,,0.00,weatherlink.com 1.10,2013-04-05 01:45:00,
2013-04-04 19:00:00,48.9,48.0,29.57,West,269,1.0,2.0,98,0.00,,,0.00,weatherlink.com 1.10,2013-04-05 02:00:00,
2013-04-04 19:15:00,50.1,50.0,29.57,NNW,331,0.0,2.0,99,0.00,,,0.00,weatherlink.com 1.10,2013-04-05 02:15:00,
2013-04-04 19:30:00,51.4,51.0,29.56,ENE,74,2.0,5.0,99,0.00,,,0.00,weatherlink.com 1.10,2013-04-05 02:30:00,
2013-04-04 19:45:00,52.0,52.0,29.57,WSW,256,1.0,7.0,99,0.00,,,0.00,weatherlink.com 1.10,2013-04-05 02:45:00,
2013-04-04 20:00:00,51.8,52.0,29.57,ESE,123,0.0,8.0,99,0.00,,,0.00,weatherlink.com 1.10,2013-04-05 03:00:00,
2013-04-04 20:15:00,51.5,51.0,29.58,NE,44,2.0,6.0,99,0.00,,,0.00,weatherlink.com 1.10,2013-04-05 03:15:00,
2013-04-04 20:30:00,51.1,51.0,29.59,NNE,12,0.0,5.0,98,0.00,,,0.00,weatherlink.com 1.10,2013-04-05 03:30:00,
2013-04-04 20:45:00,50.9,50.0,29.59,ESE,103,0.0,2.0,98,0.00,,,0.00,weatherlink.com 1.10,2013-04-05 03:45:00,
2013-04-04 21:00:00,50.7,50.0,29.59,ENE,63,0.0,4.0,98,0.00,,,0.00,weatherlink.com 1.10,2013-04-05 04:00:00,
2013-04-04 21:15:00,50.4,50.0,29.60,ESE,111,0.0,2.0,98,0.00,,,0.00,weatherlink.com 1.10,2013-04-05 04:15:00,
2013-04-04 21:30:00,50.3,50.0,29.60,South,175,2.0,2.0,98,0.00,,,0.00,weatherlink.com 1.10,2013-04-05 04:30:00,
2013-04-04 21:45:00,50.1,50.0,29.61,NE,51,0.0,4.0,98,0.00,,,0.00,weatherlink.com 1.10,2013-04-05 04:45:00,
2013-04-04 22:00:00,49.9,49.0,29.61,NE,51,1.0,3.0,98,0.00,,,0.00,weatherlink.com 1.10,2013-04-05 05:00:00,
2013-04-04 22:15:00,49.7,49.0,29.62,NNE,19,1.0,3.0,98,0.00,,,0.00,weatherlink.com 1.10,2013-04-05 05:15:00,
2013-04-04 22:30:00,49.6,49.0,29.62,NNE,24,0.0,3.0,98,0.00,,,0.00,weatherlink.com 1.10,2013-04-05 05:30:00,
2013-04-04 22:45:00,49.6,49.0,29.62,ENE,59,1.0,2.0,99,0.00,,,0.00,weatherlink.com 1.10,2013-04-05 05:45:00,
2013-04-04 23:00:00,49.7,50.0,29.62,ENE,68,0.0,2.0,99,0.00,,,0.00,weatherlink.com 1.10,2013-04-05 06:00:00,
2013-04-04 23:15:00,49.6,49.0,29.63,North,7,1.0,2.0,99,0.00,,,0.00,weatherlink.com 1.10,2013-04-05 06:15:00,
2013-04-04 23:30:00,49.6,49.0,29.63,North,354,1.0,3.0,99,0.00,,,0.00,weatherlink.com 1.10,2013-04-05 06:30:00,
2013-04-04 23:45:00,49.6,49.0,29.62,South,170,0.0,2.0,99,0.00,,,0.00,weatherlink.com 1.10,2013-04-05 06:45:00,